STARLINK-37524, 68842

Orbit data source: Space-Track

STARLINK-37524, 68842 is a payload satellite owned by SpaceX/Seattle (US) in SSO that was launched on Sun, 26 Apr 2026 UTC via an FALCON 9 launch vehicle from the Air Force Western Test Range (AFWTR). Payload-class satellites include a variety of spacecraft equipped with specific instruments for various scientific and technological missions. These include communications satellites like Starlink; space stations such as the ISS; scientific satellites like the Hubble; Earth observation satellites from companies like Planet Labs, Umbra, and HawkEye 360; GPS; miniature CubeSats for education and research; and military/defense satellites.

Loading next visibility...
Identifier
68842, 2026-094D
Orbit
SSO
Country
Flag of USUS
Related business
Manufacturer
SpaceX/Seattle
Mission
Operational spacecraft
Bus & Motor
STARLINK V2MO, Unknown motor
Mass
575 kg wet, ~530 kg dry
Launch date (UTC)
2026-04-26 (2 months ago)
Launch vehicle
FALCON 9
Launch site
Air Force Western Test Range (AFWTR)
Object type
Payload
Rocket body
Debris
Shape & HBR
Unknown shape, 14.5 m
Radar Cross Section
Large (>1 m²)

Expand to show TLE details & history
Last TLE update: 20 hours ago

TLE from 20 hours ago
0 STARLINK-37524
1 68842U 26094D   26171.02793334  .00025843  00000-0  79988-3 0  9993
2 68842  97.2836 185.4312 0001764  94.8711 265.2733 15.33451715  8480
Epoch: 2026-06-20T00:40Z
TLE epoch observation values (Epoch: 2026-06-20T00:40:13.440Z)
Latitude
-0.00005°
Longitude
-92.87324°
Altitude
468.735 km
Speed
7.632 km/s
True Right ascension
12h 21m 43s
True Declination
0° 00' 00"
Sunlit
Object was in daylight at epoch
Visualization orbit readout
Latitude
Unknown
Longitude
Unknown
Altitude
Unknown
Speed
Unknown
Apparent Right ascension
Unknown
Apparent Declination
Unknown
Sunlit
N/A
Visualization observer readout
Local Sidereal Time
07:17:27
Azimuth
Unknown
Elevation
Unknown
Doppler factor
Unknown
Orbital elements
Apogee altitude
463.673 km
Perigee altitude
461.259 km
Semi-major axis
6,840.603 km
Eccentricity
0.00018
Inclination
97.2836°
RAAN
185.4312°
Arg. of periapsis
94.8711°
True anomaly
265.25316°
Mean anomaly
265.2733°
Eccentric anomaly
265.26323°
Mean motion
3.8362 °/min
Orbital period
93.84 mins
BSTAR
0.00079988
Loading maneuver chart data...
Computing Atmospheric mass density...
Loading historical data...
Loading historical data...
Loading historical data...
Loading historical data...
Loading historical data...
Loading historical data...
Loading historical data...

Documentation

Showing up to 5 results
|